KATW

Outagamie County Regional Airport

Airport
ICAO code
KATW
Summary
ICAO Region
NAM
ICAO Territory
Location

Appleton, Wisconsin,

Coordinates
44° 15' 38" N , 88° 30' 40" W
KCC
Airport CFIT
Altimeter Temperature Error Correction
Airport WX
Cumulonimbus
Metar
Observation
KATW 042045Z 21009KT 10SM BKN120 M03/M11 A2985
Station
Appleton / Outagamie
Date/Time
2023-02-04 20:45:00
Wind direction
210°
Wind speed
09 kts
Lowest cloud amount
broken clouds
Temperature
-3°C
Dew point
-11°C
Humidity
53%
Weather condition
n/a

Description

Outagamie County Regional Airport is a public use airport located just west of Appleton in Outagamie County, Wisconsin.

Climatology

Humid continental climate (Köppen climate classification Dfa) - characterized by four seasons: cold, windy, snowy winters, mild springs, hot, humid summers, and crisp and relatively short autumns. Precipitation reaches its lowest in January and February and peaks in summer and latter half of spring.

Airport map

Aerial View

SKYbrary Partners:

Safety knowledge contributed by: